STARLINK-2058 (47667 NORAD) Tracking and Keplerian Element Data

This shows tracking and keplerian element data for the satellite.

Feedback or suggestion? Click here.




ElementValue
Catalog47667
NameSTARLINK-2058
Epoch Orbit989
Epoch Day106.16668981
Epoch Year2021
RAAN180.5964
Inclination53.0529
Eccentricity0.000109
Argument of Perigee82.2507
Mean Anonmoly316.431
Mean Motion15.06388092
Decay Rate0.00032516
L11 47667U 21012AZ 21106.16668981 .00032516 00000-0 21925-2 0 9999
L22 47667 53.0529 180.5964 0001090 82.2507 316.4310 15.06388092 9899

Live tracking and technical data element details for STARLINK-2058 (NORAD 47667). STARLINK-2058 can be tracked NOW for your location showing map with azimuth and elevation plus other details from your city location.

Track the satellite on the map from your city or location and see movement details for azimuth, elevation, latitude, longitude, range, height, and movement on the map or in text.







IsCatalogInMostPopularTable: catalog: 47667, numindb: 18
Update: records affected: 1



GetName: 47667 STARLINK-2058

Hit Count: updated at: Fri, 16 Apr 2021 12:08:57 GMT